Location: Las Callecitas
(9.8750°N, 67.4611°W)
Time: 02:31:30
(UTC+00:00)

Aurora 2 Rocket - Visible Passes

Search period start: 19 July 2024 00:00
Search period end: 29 July 2024 00:00
Orbit: 387 x 1629 km, 25.0° (Epoch: 18 July)

Date Brightness Start Highest point End Pass type
(mag) Time Alt. Az. Time Alt. Az. Time Alt. Az.
19 Jul 4.4 00:08:10 10° WNW 00:18:30 78° NNE 00:23:20 31° ESE visible
19 Jul 5.3 02:02:57 10° W 02:08:33 33° WSW 02:08:33 33° WSW visible
20 Jul 4.3 00:43:51 10° WNW 00:54:01 70° SSW 00:56:20 52° SE visible
20 Jul 6.3 02:39:57 10° W 02:41:33 14° WSW 02:41:33 14° WSW visible
20 Jul 4.6 23:25:22 10° WNW 23:35:52 82° NNE 23:44:07 15° ESE visible
21 Jul 4.8 01:20:01 10° W 01:29:18 43° SSW 01:29:20 43° SSW visible
22 Jul 4.6 00:01:02 10° WNW 00:11:22 67° SSW 00:17:08 27° SE visible
22 Jul 5.8 01:57:01 10° W 02:02:21 23° SW 02:02:21 23° SW visible
23 Jul 5.0 00:37:10 10° W 00:46:43 42° SSW 00:50:09 32° SSE visible
23 Jul 4.9 23:18:23 10° WNW 23:28:32 64° SSW 23:37:57 11° SE visible
24 Jul 5.6 01:14:10 10° W 01:22:03 26° SSW 01:23:10 25° SSW visible
24 Jul 5.3 23:54:29 10° W 00:03:57 41° SSW 00:10:57 17° SSE visible
25 Jul 6.2 01:52:45 10° WSW 01:56:10 14° SW 01:56:10 14° SW visible
26 Jul 5.8 00:31:27 10° WSW 00:39:24 25° SSW 00:43:57 18° S visible
26 Jul 5.5 23:12:02 10° W 23:21:04 39° SSW 23:30:18 10° SE visible
27 Jul 6.1 01:10:00 10° SW 01:15:04 15° SSW 01:16:56 14° SSW visible
27 Jul 6.0 23:49:00 10° WSW 23:56:38 24° SSW 00:04:18 10° SSE visible
